sat.trackr.live / text

‹ back to catalog

STARLINK-30756

NORAD 58129 · 2023-162M

PAYLOAD ACTIVE UNKNOWN

§ Identity

Operator
Country
US
Launch date
2023-10-22
Launch site
AFETR
Launch vehicle
Mass (kg)
RCS (m²)

Purposes: comms

External: N2YO · Heavens-Above · Gunter

§ Orbital elements

Epoch: 2026-05-25T04:02:19.419648Z

Period
94.27 min
Inclination
43.0035°
Eccentricity
0.0001445
Mean motion
15.27568656 rev/d
Perigee alt
482.1 km
Apogee alt
484.1 km
Semi-major
6,861.2 km
B*
6.2356e-6
RAAN
60.5560°
Arg perigee
265.9116°
Mean anomaly
94.1570°
Rev number
14,400

§ Raw data

STARLINK-307561 58129U 23162M   26145.16828032 -.00000091  00000+0  62356-5 0  99942 58129  43.0035  60.5560 0001445 265.9116  94.1570 15.27568656144004

JSON: /api/v1/satellites/58129 · /tle

For live sub-satellite position, see the globe view (requires WebGL).

§ Visibility from observer

Set your observer location to see the next 7 days of passes ≥ 10°. The values pass through the URL so the page stays shareable.

No JS? Fill the form by hand. The geolocation button needs JavaScript.